GAOFEN 6

Last updated on Tue Nov 21 2023 00:02:24 GMT+0000 (Coordinated Universal Time)

1 43484U 18048A 23324.56748299 .00000851 00000+0 12910-3 0 9997 2 43484 97.8867 39.1554 0009287 334.4048 25.6701 14.76561113294730

Satellite not in orbit

GAOFEN 6